Theta_e
280 281 281 280 279 279 280 280 279 280 280 281 281 281 282 283 283 283 284 284 284 283 283 283 283 283 284 287 289 291 291 292 292 292 292 292 293 293 293 293 293 294 294 294 294 294 294 294 294 294 294 294 295 295 295 296 296 296 296 297 297 296 296 296 296 297 297 297 298 298 299 299 300 300 300 300 301 301 301 301 301 301 301 301 301 301
280 280 280 279 279 279 280 280 279 279 280 280 281 281 282 281 282 282 283 283 283 283 283 283 283 283 283 285 288 290 291 291 292 292 292 292 293 293 293 293 293 294 294 294 294 294 294 294 294 294 294 294 294 294 295 295 295 295 295 296 296 296 296 296 296 296 296 297 297 298 298 299 299 299 300 300 300 300 300 300 300 300 300 300 300 301
279 279 279 279 279 279 280 280 280 280 280 280 281 281 281 281 281 282 282 283 283 283 283 283 283 283 283 284 287 290 291 291 291 292 292 292 293 293 293 293 293 293 294 293 293 293 293 293 293 293 293 293 293 294 294 295 295 295 295 295 295 295 295 295 295 295 296 296 296 297 297 298 298 298 299 299 299 299 299 299 299 299 299 300 300 301
279 279 279 279 279 279 280 280 280 280 281 281 281 281 281 281 281 282 282 283 283 283 283 283 283 283 283 284 286 289 291 291 292 292 292 292 293 293 293 293 293 293 293 293 293 293 293 293 293 293 293 293 293 294 294 294 294 295 295 295 294 294 294 294 294 294 295 295 296 296 296 297 297 298 298 298 298 298 298 298 298 298 299 300 300 301
279 279 279 279 280 280 280 280 280 281 282 282 281 281 281 281 282 282 283 283 283 283 283 284 284 284 284 284 286 288 290 291 292 292 292 293 292 292 292 292 292 292 292 292 292 292 292 292 292 293 293 293 293 294 294 294 294 294 294 294 294 294 294 294 294 294 294 295 295 295 296 296 297 297 297 297 297 297 297 297 298 299 299 300 300 301
279 279 280 280 280 280 281 281 281 281 281 281 281 281 281 282 282 282 283 283 283 283 283 284 284 284 284 285 286 289 290 291 291 292 292 292 292 292 292 292 292 292 292 292 292 292 292 292 292 292 293 293 293 294 294 294 294 294 294 294 294 293 294 294 294 294 294 294 295 295 295 296 296 296 296 296 296 296 296 297 298 298 299 300 300 301
279 280 281 281 281 281 281 281 281 281 281 281 281 281 282 282 282 282 283 283 283 283 284 284 284 284 285 286 287 289 289 290 290 291 291 291 291 291 291 291 291 291 291 292 292 292 292 292 292 292 292 293 293 293 293 294 294 293 293 293 293 293 293 293 293 293 293 294 294 295 295 295 295 295 295 295 295 295 295 296 297 298 299 299 300 300
279 279 280 281 281 281 281 281 281 281 281 281 281 281 281 282 282 282 283 283 283 283 284 284 284 285 285 285 286 286 286 286 286 287 288 288 289 290 290 291 291 291 291 291 292 292 292 292 292 292 292 292 293 293 293 293 293 293 293 293 293 293 293 292 292 293 293 293 294 294 294 294 294 294 294 295 295 295 295 296 296 297 298 299 299 300
279 279 280 280 280 280 280 281 281 281 282 281 281 281 280 281 281 282 282 282 283 283 284 284 284 284 284 284 284 284 285 285 285 285 286 286 286 287 289 290 290 291 291 291 291 291 291 291 291 292 292 292 292 292 292 292 292 292 292 292 292 292 292 292 292 292 293 293 294 294 294 294 294 294 294 294 294 295 295 296 296 297 298 298 299 299
279 279 280 280 281 280 280 280 280 281 282 282 282 281 281 280 281 281 281 281 282 283 284 284 283 282 282 283 283 283 285 285 287 287 288 287 287 288 289 289 289 289 290 290 291 291 291 291 291 291 291 291 291 291 291 291 291 292 292 292 292 291 291 292 292 292 293 293 293 293 294 294 294 294 294 294 294 295 295 295 296 296 297 297 298 298
279 280 280 280 281 281 281 280 281 281 282 282 282 282 282 281 281 281 280 281 282 283 283 282 282 282 281 282 282 283 284 284 285 286 287 288 289 289 289 289 289 289 289 289 289 289 289 290 290 290 289 290 290 290 290 290 290 290 290 291 291 291 291 291 291 292 292 293 293 293 294 294 294 294 294 294 294 294 294 295 295 296 296 297 297 298
280 280 280 280 280 280 281 281 282 282 282 281 281 281 281 282 282 282 281 281 281 281 281 281 282 282 281 281 282 283 283 283 283 283 284 285 286 286 286 286 287 287 287 288 288 288 288 289 289 289 288 288 289 289 289 289 289 289 290 290 290 290 290 291 291 292 292 293 293 294 294 294 294 294 294 294 294 294 295 295 295 296 296 296 297 298
280 280 281 280 280 280 281 281 281 281 281 281 280 280 280 282 283 283 282 281 281 281 281 281 281 281 282 282 282 283 282 282 282 282 282 283 283 283 283 283 283 283 284 284 284 284 286 287 287 288 288 288 288 288 288 288 288 289 289 289 290 290 290 291 291 292 292 293 293 293 294 294 294 294 294 294 294 294 295 295 295 295 296 296 297 297
280 280 280 280 280 280 281 281 281 280 280 280 280 281 282 283 283 283 282 281 280 281 281 280 280 281 282 283 283 283 283 282 282 282 282 282 282 282 282 282 282 282 282 282 281 282 284 285 285 285 287 287 287 287 287 288 288 289 289 289 290 290 290 291 291 292 292 292 293 293 293 293 293 293 294 294 294 294 295 295 295 296 296 296 297 297
280 280 280 280 280 280 281 281 280 280 280 280 281 282 283 283 282 282 281 280 280 280 280 280 280 280 281 282 283 283 283 282 281 281 280 281 281 282 282 281 281 281 281 281 281 281 283 283 283 283 284 284 285 286 286 287 288 289 289 289 290 290 290 291 291 291 291 292 292 292 293 293 293 293 294 294 294 294 294 295 295 295 296 296 296 297
280 280 280 280 280 281 281 281 280 280 280 281 282 282 283 282 281 281 280 279 279 279 279 279 279 279 280 282 283 283 283 282 281 280 280 280 281 282 281 281 280 280 280 280 281 281 282 282 282 283 283 284 286 287 287 288 288 289 289 289 289 290 290 290 290 291 291 292 292 292 292 293 293 293 293 293 294 294 294 295 295 295 295 296 296 296
281 281 280 280 281 281 282 281 281 281 281 281 282 282 282 281 280 280 279 279 279 279 279 278 278 278 278 280 281 282 282 281 281 280 279 279 280 281 281 281 280 280 280 280 280 281 281 281 282 282 283 285 286 287 287 288 288 288 289 289 289 289 290 290 290 291 291 291 292 292 292 292 293 293 293 293 293 294 294 294 295 295 295 295 296 296
281 281 281 281 281 281 281 281 281 281 281 281 282 282 281 280 279 279 279 279 279 278 278 278 278 278 277 278 280 281 282 281 280 279 279 279 280 281 281 281 280 280 279 280 280 281 281 281 281 282 283 285 286 287 287 287 288 288 288 289 289 289 289 290 290 290 291 291 291 292 292 292 292 293 293 293 293 294 294 294 294 295 295 295 295 296
282 282 282 282 282 281 281 281 281 280 281 281 281 280 279 279 279 279 279 279 279 279 279 279 279 279 278 279 280 281 282 282 280 279 278 278 279 280 281 280 280 280 279 280 280 281 281 281 282 284 285 286 286 287 287 287 287 288 288 288 289 289 289 290 290 290 291 291 291 292 292 292 292 293 293 293 293 294 294 294 294 294 295 295 295 296
283 283 283 283 282 281 281 281 281 282 282 282 281 280 279 279 279 279 279 280 280 280 280 279 279 279 280 280 280 281 282 282 280 279 278 278 278 279 280 280 279 279 278 279 280 280 281 281 281 283 285 285 286 286 287 287 287 288 288 288 288 289 289 289 290 290 291 291 291 292 292 292 292 292 292 293 293 293 294 294 294 294 295 295 295 295
283 283 284 283 282 282 282 282 282 282 284 283 281 279 279 279 279 279 279 280 280 280 280 280 280 280 280 280 281 281 282 281 280 278 278 278 278 278 279 279 279 278 278 278 279 280 281 281 281 282 283 285 286 286 287 287 287 287 288 288 288 289 289 289 290 290 291 291 292 292 292 292 292 292 292 293 293 293 294 294 294 295 295 295 296 296
284 283 283 283 283 283 283 282 282 284 285 282 280 279 279 279 279 279 280 280 281 281 281 281 281 281 281 281 281 281 282 281 280 278 277 276 276 277 278 279 278 278 277 278 279 280 280 280 281 281 283 285 286 286 286 287 287 287 287 288 288 288 289 290 290 290 291 291 291 291 292 292 292 292 293 293 293 293 294 294 294 295 295 296 296 297
283 283 283 283 283 283 284 283 283 283 284 282 281 281 281 280 280 280 281 281 281 281 282 282 282 282 282 282 281 281 281 281 280 279 277 275 275 276 278 278 278 278 277 278 279 280 280 280 281 282 283 285 286 286 286 286 287 287 287 287 288 288 289 289 290 290 290 290 291 291 291 292 292 292 292 293 293 293 293 294 294 294 295 295 296 296
282 282 282 282 283 283 283 283 283 283 283 282 282 282 282 282 282 283 283 283 283 283 282 282 282 281 281 281 280 280 280 280 280 279 277 276 276 276 278 278 278 277 277 278 279 279 280 280 280 281 282 284 285 285 286 286 286 286 287 287 288 288 288 289 289 289 289 290 290 290 291 291 292 292 292 293 293 293 293 294 294 294 294 295 295 296
282 282 282 283 283 284 284 284 285 284 284 283 283 283 283 284 285 285 285 285 284 283 282 281 279 278 278 279 279 279 279 279 279 279 277 276 276 276 278 278 277 277 277 278 279 279 279 279 280 280 281 282 284 285 285 285 286 286 287 287 287 287 288 288 288 288 289 289 290 290 291 291 292 292 292 293 293 293 293 294 294 294 294 295 295 295
286 286 285 286 287 288 289 289 289 289 288 286 285 285 285 285 285 285 284 283 282 281 280 278 277 277 277 278 278 278 279 279 280 279 278 277 276 276 277 278 277 277 277 278 278 279 278 278 279 279 280 280 282 284 285 285 285 286 286 286 287 287 287 287 288 288 288 289 290 290 291 291 292 292 292 293 293 293 294 294 294 294 294 294 294 295
290 290 290 290 290 290 290 291 291 291 292 291 290 289 288 286 285 283 281 281 280 279 278 277 276 276 277 277 277 277 279 279 280 279 279 277 276 276 276 277 277 277 277 277 278 278 279 278 278 279 279 279 280 282 284 285 285 285 286 286 286 286 287 287 287 288 288 289 289 290 291 291 292 292 292 293 293 293 294 294 294 294 294 294 294 294
291 291 291 291 291 292 292 292 292 293 293 293 293 292 290 286 282 280 280 280 279 279 278 277 276 276 276 276 277 278 278 279 279 279 279 278 276 275 276 277 277 277 276 277 277 278 279 279 278 278 278 279 280 281 283 284 285 285 285 285 286 286 286 287 287 287 288 288 289 290 290 291 291 292 292 293 293 293 294 294 294 294 294 293 293 293
290 291 291 292 292 293 293 293 293 293 293 293 292 291 289 284 281 279 279 279 279 279 278 278 277 277 276 276 277 277 278 278 279 279 279 278 276 276 277 277 277 277 277 276 276 277 277 277 278 278 278 279 280 280 281 282 283 283 284 284 285 285 286 286 287 287 288 288 289 289 290 290 290 291 291 292 292 293 293 294 294 294 293 292 292 292
287 288 289 289 290 290 290 288 288 290 291 291 290 290 288 283 280 279 279 279 279 278 278 278 277 277 277 276 276 276 276 277 278 279 279 277 276 276 277 277 277 277 277 275 275 274 274 276 277 278 278 279 279 279 279 280 280 281 281 282 283 284 285 286 286 287 287 288 288 288 289 289 290 290 290 291 292 292 293 293 294 293 292 291 291 291
284 285 285 284 284 284 284 283 284 285 287 288 289 288 286 283 280 279 279 279 278 278 278 277 277 277 277 276 275 275 275 277 279 280 280 278 277 276 277 277 277 277 277 276 274 272 272 274 276 277 278 278 278 279 279 279 279 279 280 280 281 282 284 285 286 286 287 287 287 288 288 288 289 289 290 290 291 292 292 293 293 293 292 291 291 291
284 284 283 282 281 281 281 282 282 281 282 283 284 285 285 283 282 280 279 279 279 278 278 278 278 278 278 277 276 275 276 277 280 281 281 279 278 277 278 277 277 277 277 277 275 273 272 273 274 276 277 277 278 278 279 279 279 279 280 280 280 281 283 284 285 285 285 286 286 287 287 287 288 288 289 290 290 291 292 292 293 293 292 291 291 291
284 283 283 282 281 281 281 280 280 280 280 280 281 281 282 283 283 282 281 280 280 279 279 279 278 278 278 277 277 277 277 278 280 282 282 280 278 278 278 277 277 276 277 277 276 275 274 273 274 275 276 277 277 278 278 279 279 280 280 279 280 280 282 283 283 283 284 284 285 285 286 287 287 288 288 289 290 291 291 292 292 293 292 292 291 291
284 283 283 282 281 281 280 280 279 279 280 280 280 281 281 281 282 282 282 281 281 280 280 279 279 278 278 277 277 277 278 279 281 283 283 280 279 278 278 277 277 276 276 276 276 275 275 275 275 275 275 276 277 278 278 279 279 280 279 279 279 280 281 281 282 282 282 283 283 283 284 285 286 287 288 288 289 290 291 291 292 293 293 292 292 291
283 283 283 282 281 280 279 279 279 279 280 280 280 281 281 281 281 281 282 281 281 281 280 280 280 279 278 278 277 277 278 279 281 283 283 281 279 278 277 277 277 276 276 275 275 275 274 275 275 275 275 275 276 277 278 278 279 279 279 279 280 280 280 280 281 281 281 281 281 282 283 283 284 285 286 287 288 289 290 291 292 293 293 293 293 292
282 282 282 281 280 279 279 279 279 279 280 280 280 280 280 280 280 280 280 280 281 281 281 281 281 280 280 279 279 278 278 279 281 283 283 282 280 278 277 277 277 277 276 275 275 275 274 274 275 275 275 275 275 276 277 278 279 279 279 279 279 280 280 280 280 280 280 281 281 281 282 283 283 284 285 287 288 289 290 291 291 292 293 293 294 294
282 281 281 280 279 279 279 278 278 279 279 279 279 279 280 280 280 280 280 279 279 280 281 282 282 282 282 281 281 280 280 280 281 282 282 281 280 279 278 278 278 278 277 276 275 275 274 274 274 274 274 274 274 275 276 277 278 278 278 279 279 279 280 280 280 280 280 281 281 281 282 283 283 284 284 286 288 289 289 291 291 292 292 293 293 294
282 281 280 279 279 278 278 278 278 278 279 279 279 279 279 279 279 279 279 278 278 278 279 280 280 281 283 283 283 282 281 281 281 280 280 280 279 279 278 278 278 278 278 277 276 275 275 274 273 273 273 274 275 276 276 277 277 277 278 279 279 279 279 280 280 280 281 281 281 282 282 283 283 283 284 285 286 287 288 289 290 291 291 292 293 294
281 280 279 279 279 278 278 278 278 278 279 279 279 279 279 279 278 278 279 278 278 278 278 279 279 280 280 281 282 283 283 282 281 280 280 279 279 278 278 278 278 278 278 278 277 276 275 274 274 273 273 274 275 275 276 276 277 277 277 278 279 279 280 280 280 281 281 281 281 282 282 282 282 283 283 284 285 286 286 287 288 289 289 289 290 292
281 280 280 280 280 279 278 279 279 279 278 279 280 280 280 279 278 278 277 279 279 279 278 278 280 281 281 282 282 283 283 282 282 281 279 278 277 277 278 278 277 277 278 277 277 276 276 275 275 275 275 274 275 275 276 276 277 277 278 277 277 278 279 280 280 280 280 280 280 281 281 281 282 282 283 283 284 284 285 286 287 288 289 288 289 289
280 280 280 280 280 280 280 280 279 279 278 278 278 278 278 278 278 278 278 278 279 279 280 280 280 281 281 280 280 280 280 280 281 280 279 278 277 277 278 278 278 277 277 277 277 277 276 276 275 275 275 275 275 276 276 276 277 278 279 277 277 277 279 280 280 280 280 280 280 281 281 282 282 282 282 283 283 283 284 285 286 287 288 288 288 288
281 280 279 279 279 279 279 279 279 279 279 278 278 277 277 277 277 277 277 277 277 278 279 280 280 280 279 279 279 279 279 279 279 280 279 278 277 277 277 277 278 278 277 277 277 277 277 276 276 276 275 276 275 275 275 276 277 278 278 278 278 278 279 280 280 280 280 280 280 281 282 281 281 281 282 282 282 283 284 285 285 286 287 288 288 289
281 280 279 279 278 278 279 279 280 280 279 278 278 278 278 277 278 278 278 278 278 279 280 280 280 280 279 279 278 278 278 277 278 279 280 278 277 276 277 277 277 278 277 277 276 276 277 277 276 276 276 276 276 275 275 276 277 277 278 278 278 277 277 277 278 279 280 280 280 280 281 281 281 281 281 282 282 283 284 285 286 287 287 287 287 288
280 279 279 278 278 278 279 279 279 278 278 278 278 278 278 278 279 281 281 280 280 280 280 280 280 280 279 278 278 278 278 277 277 277 278 279 279 278 278 277 277 277 277 276 276 275 275 276 276 276 277 277 276 276 275 275 276 276 277 278 278 277 277 277 278 279 279 280 280 280 280 281 281 281 281 282 282 282 283 284 284 285 286 287 287 287
279 279 278 279 279 279 278 278 278 278 278 279 279 278 278 279 280 281 281 280 280 280 280 280 279 279 278 277 278 278 278 278 277 277 277 279 281 282 280 278 277 277 277 276 276 276 275 275 275 276 277 277 276 275 275 275 275 276 277 278 278 278 278 279 279 279 279 279 280 280 281 281 281 281 281 281 281 282 282 283 283 284 285 285 286 286
279 279 278 278 278 278 278 279 278 278 278 278 278 278 278 278 279 280 280 280 280 279 280 280 279 278 278 277 278 278 277 277 277 278 278 277 277 277 278 278 278 278 277 277 277 276 276 275 275 275 275 275 275 275 275 275 275 275 276 277 278 278 278 279 279 279 279 279 279 280 281 281 281 281 280 280 281 281 282 283 283 283 284 285 285 286
278 278 278 278 278 278 278 278 278 278 277 278 278 278 278 277 277 277 279 279 279 279 279 280 279 278 278 278 278 277 277 277 276 277 277 277 277 276 277 277 278 279 278 278 277 277 276 276 276 275 275 274 273 274 274 275 275 276 276 277 277 277 277 278 278 279 279 280 280 280 281 281 280 280 280 280 280 281 281 282 283 283 284 284 285 285
279 279 278 278 277 277 277 277 277 277 277 277 277 277 277 277 277 277 278 278 279 279 280 279 279 278 278 278 278 277 277 277 277 276 277 277 277 277 277 277 277 278 278 278 278 278 277 277 276 275 275 274 273 273 274 275 275 276 276 277 277 277 277 277 278 279 279 280 280 280 280 280 280 280 280 280 280 280 280 281 282 283 284 284 284 285
279 278 278 278 277 277 277 277 277 276 276 276 276 276 276 278 279 280 279 278 278 278 278 278 278 278 278 277 277 277 278 278 277 277 276 276 276 277 276 276 276 277 277 276 276 276 277 277 277 277 277 276 275 274 274 275 275 276 277 277 277 277 277 277 278 278 279 279 280 280 281 281 281 281 280 280 279 279 280 280 281 282 283 284 284 285
279 278 278 278 277 277 277 277 277 277 277 276 276 276 275 275 277 277 278 277 277 277 277 278 278 278 277 277 277 277 277 277 277 276 276 276 276 276 276 276 276 276 276 275 275 275 274 275 276 277 279 279 278 276 275 275 276 277 277 278 278 278 278 278 278 278 279 279 279 279 280 281 281 281 281 280 279 279 279 280 281 282 283 283 284 285
279 279 278 278 277 277 277 277 277 277 277 277 277 276 275 275 275 275 276 277 277 277 277 278 278 278 278 277 277 277 278 277 277 276 276 276 276 276 276 276 276 276 275 274 274 273 273 273 273 274 277 280 281 279 277 276 276 276 276 277 278 279 279 279 279 279 280 280 280 280 280 280 281 281 281 280 279 279 279 279 280 281 282 283 283 284
Wind_Speed
5 4 4 5 5 5 6 6 7 7 7 7 8 8 8 10 10 11 13 13 13 12 12 12 13 14 16 21 24 27 29 30 31 32 32 32 33 33 34 34 34 34 34 34 34 34 34 34 34 34 35 34 34 34 33 33 34 34 34 34 34 32 31 31 31 32 33 34 34 34 34 34 34 35 35 34 33 33 33 33 33 33 33 33 33 33
5 4 4 5 5 5 6 7 7 7 8 8 8 9 9 10 9 9 10 11 12 12 11 12 13 14 15 17 22 26 28 30 31 31 32 32 33 33 34 34 34 34 34 34 34 34 34 34 34 35 35 34 34 33 33 33 33 33 33 33 33 32 30 30 30 31 32 33 33 33 34 34 34 34 34 33 33 33 33 33 33 33 33 32 32 32
4 4 4 4 5 6 6 6 6 6 7 8 9 9 10 10 10 10 9 10 11 11 11 11 12 13 14 16 20 24 27 29 30 31 31 32 32 33 33 33 34 34 34 34 34 34 34 34 34 35 35 34 34 33 33 33 33 33 33 33 32 31 30 30 30 31 31 32 32 33 33 33 34 34 34 33 32 32 32 33 33 33 32 32 31 32
5 5 5 4 5 6 7 6 6 6 6 8 9 10 10 10 10 10 10 10 10 10 10 11 12 12 12 13 16 21 25 27 29 30 31 31 32 33 33 33 34 34 34 34 34 34 34 34 34 34 34 34 34 33 33 33 33 33 33 32 31 29 29 29 30 31 31 31 32 32 32 33 33 33 33 32 32 32 32 33 33 33 32 31 31 31
5 5 5 4 5 6 6 6 6 6 6 7 8 9 10 9 9 9 10 10 11 11 10 10 11 11 11 11 14 19 24 27 28 30 31 31 32 32 33 33 34 34 34 34 34 34 34 34 34 34 34 34 33 33 33 32 32 32 32 31 30 28 27 28 29 30 31 31 31 31 32 32 32 32 32 32 32 32 32 32 33 32 32 31 31 31
5 5 5 4 5 5 5 5 6 6 6 7 8 8 9 8 8 9 10 10 10 10 9 9 9 10 11 11 14 19 23 25 27 29 30 31 32 32 33 33 33 34 34 34 33 33 34 34 34 34 33 33 33 32 32 32 31 31 31 30 29 28 27 28 29 30 30 30 31 31 31 31 31 31 31 31 31 32 32 32 32 32 31 31 31 32
6 5 5 5 5 5 5 6 6 6 6 7 7 8 8 8 8 9 10 9 9 8 8 8 9 9 10 12 14 17 19 22 24 26 28 30 31 31 32 32 32 33 33 33 33 33 33 33 33 33 32 32 32 32 31 31 30 30 29 29 28 28 28 29 29 30 31 31 31 31 31 31 31 31 31 31 31 31 31 31 31 31 31 31 31 32
7 6 6 6 6 6 6 6 6 6 6 7 7 8 8 7 8 8 9 8 8 7 7 8 9 9 9 10 11 13 13 15 17 19 22 24 26 27 28 30 31 31 32 32 32 32 33 32 32 32 31 31 31 31 30 30 29 29 28 28 27 28 29 29 30 31 31 32 32 32 32 32 31 31 31 31 31 31 31 31 31 31 30 31 31 32
9 8 8 7 7 7 7 7 6 6 6 7 7 8 8 8 8 8 7 7 7 6 7 8 8 8 8 7 8 10 12 13 14 15 17 17 19 21 24 26 28 29 30 31 31 31 31 31 31 31 30 30 30 30 30 29 29 28 28 27 27 28 29 30 31 31 32 32 32 32 32 32 32 31 31 31 31 31 31 31 30 30 30 31 31 32
9 9 9 8 7 7 7 7 7 7 7 7 8 8 8 8 9 8 8 7 6 5 6 7 8 8 8 7 7 9 11 14 17 19 21 20 22 23 24 24 24 25 28 29 30 30 30 30 30 30 30 30 30 30 29 29 28 28 27 27 28 28 29 30 31 31 32 32 32 32 32 32 32 31 31 31 31 31 31 30 30 30 30 30 31 31
9 9 8 8 7 6 7 7 7 7 7 7 7 7 7 7 8 8 9 8 6 5 5 6 6 7 8 8 8 9 10 12 14 16 19 21 23 24 24 23 23 24 26 27 27 28 28 29 29 29 29 29 29 29 28 28 27 27 27 27 28 28 29 30 31 31 32 32 32 32 32 32 32 32 31 31 31 31 30 30 30 30 30 30 30 31
8 7 7 7 6 6 6 6 6 6 5 5 5 6 6 6 6 6 7 7 7 7 6 6 6 6 7 8 8 9 10 10 11 12 12 14 15 16 17 17 18 19 21 22 23 24 26 27 28 28 28 27 27 27 27 26 26 27 27 27 28 29 29 30 31 31 31 32 32 32 32 32 32 32 31 31 31 31 30 30 29 29 29 29 30 30
7 7 7 7 6 6 6 6 5 4 4 4 5 5 5 5 4 4 5 7 7 7 7 7 7 7 7 7 7 8 9 10 10 10 10 10 10 10 10 11 12 12 13 14 15 16 20 23 24 25 25 25 25 26 26 26 26 26 27 27 28 29 29 30 31 31 31 31 32 32 32 32 32 31 31 31 31 30 30 29 29 29 29 29 29 30
8 7 7 7 7 7 7 6 5 5 4 4 4 4 5 4 4 4 5 6 7 7 6 8 8 8 7 7 7 7 8 8 9 9 10 9 9 9 9 10 11 11 11 11 11 13 16 17 17 18 21 22 23 23 23 24 25 26 27 27 28 29 29 30 31 31 31 31 31 31 31 31 31 31 31 31 30 30 29 29 29 29 28 28 29 30
8 7 8 8 8 7 6 6 5 5 5 4 4 4 4 4 4 4 5 6 6 6 6 8 9 9 7 6 6 5 6 7 7 9 11 10 9 9 9 11 11 11 11 11 11 12 14 14 13 13 14 17 19 20 22 23 25 26 27 28 28 29 30 30 30 31 31 31 31 31 31 31 31 30 30 30 30 29 29 29 28 28 28 28 28 29
8 8 8 9 8 7 6 5 5 5 4 4 4 4 4 4 4 4 5 6 6 6 6 8 9 9 7 6 5 5 5 6 7 9 11 11 10 8 9 11 11 12 11 11 11 11 11 11 11 11 12 16 20 23 25 25 26 27 27 28 29 30 30 30 31 31 31 31 31 31 31 31 30 30 30 30 29 29 29 28 28 28 27 27 28 29
8 8 8 8 8 7 5 5 4 4 4 4 4 4 4 4 4 4 4 5 5 5 6 7 8 8 7 6 5 4 4 6 7 9 11 12 11 9 9 10 11 12 11 11 10 10 10 10 10 10 11 16 21 24 26 26 27 27 28 29 30 30 30 31 31 31 31 31 31 31 31 31 30 30 30 30 29 29 28 28 28 27 27 27 28 28
8 8 8 8 7 6 4 4 4 4 4 4 4 3 3 3 4 4 4 4 4 5 6 6 7 7 7 6 5 4 4 6 8 10 12 12 11 10 9 9 10 11 11 11 10 10 10 10 10 11 13 19 23 25 26 27 27 28 29 29 30 30 31 31 31 31 31 31 31 31 31 30 30 30 30 29 29 29 28 28 27 27 27 27 27 28
8 8 7 7 6 5 4 4 4 4 3 3 3 3 3 3 4 4 5 5 5 6 7 8 7 6 7 7 7 6 5 6 8 11 12 12 12 10 9 9 10 11 11 11 10 10 10 10 12 15 19 23 25 26 27 27 28 28 29 30 30 30 31 31 31 31 31 31 31 30 30 30 29 29 29 29 28 28 28 27 27 27 26 26 27 27
8 7 6 5 4 4 5 5 5 4 4 3 3 3 4 4 4 4 5 5 6 7 7 7 7 7 6 7 7 7 6 7 8 10 11 12 12 10 8 9 10 11 11 10 10 9 9 10 11 14 18 21 23 25 26 27 28 28 29 30 30 30 30 30 30 31 31 31 30 30 29 29 29 28 28 28 28 28 28 27 27 26 26 26 26 27
7 7 6 5 4 4 5 5 4 4 4 4 3 3 4 4 5 5 6 6 6 6 6 6 7 7 6 7 8 8 7 7 8 9 9 10 10 9 7 8 9 11 11 10 10 9 9 10 9 10 14 19 22 24 26 27 28 28 29 30 30 30 30 30 30 30 30 30 29 29 28 28 28 28 28 28 28 27 27 27 26 26 25 25 26 26
6 6 5 5 5 4 5 5 5 5 5 4 3 3 4 4 6 7 7 7 6 6 6 6 6 6 7 8 9 8 6 6 6 7 7 10 11 10 7 7 9 11 11 10 10 9 9 9 9 10 14 19 23 25 26 27 27 28 29 29 29 29 29 29 29 29 29 29 29 28 28 27 27 27 27 27 27 27 27 26 26 25 25 25 25 26
6 6 6 6 6 6 6 6 5 5 6 5 5 5 4 5 6 7 7 6 5 5 6 6 7 7 8 8 8 7 5 5 6 6 7 10 11 11 7 8 9 10 11 10 10 10 10 9 9 10 14 19 22 24 26 26 27 27 28 28 28 29 29 29 29 29 29 29 29 29 28 28 27 27 27 27 27 27 26 26 25 25 25 25 25 25
7 7 7 6 6 6 5 6 6 6 6 6 6 6 6 7 7 7 6 5 5 5 5 6 7 8 8 8 8 6 5 5 5 5 6 8 10 10 8 8 9 11 11 10 9 10 10 9 9 9 11 16 20 23 25 26 26 26 27 27 27 28 28 29 29 29 29 29 29 29 28 28 27 27 27 27 27 26 26 25 25 25 24 25 25 26
7 7 7 7 8 8 9 9 10 9 8 7 7 7 8 9 8 7 6 6 5 5 5 6 8 8 7 8 7 6 5 4 4 5 5 7 9 10 8 8 9 11 11 10 9 9 10 10 9 9 9 13 17 21 23 24 25 25 26 26 27 27 28 29 29 29 29 29 29 29 28 28 27 27 27 26 26 26 25 25 24 24 24 24 24 25
12 11 12 13 16 18 20 20 20 19 17 12 9 7 7 7 7 6 5 5 4 5 6 7 8 8 8 7 6 6 5 4 4 4 5 6 8 10 8 7 8 10 11 10 10 9 10 10 10 9 8 10 13 18 21 23 24 25 25 26 26 27 28 28 29 28 28 28 28 28 28 27 27 27 26 26 25 25 24 24 24 23 23 23 23 23
21 21 23 24 25 26 27 28 27 27 26 21 16 11 8 6 5 5 5 4 4 4 5 7 8 8 8 7 6 6 5 5 4 4 5 6 7 9 8 7 8 9 11 11 10 10 11 10 10 9 8 8 9 12 17 20 22 24 25 26 26 27 28 28 28 28 28 27 27 27 27 27 27 26 26 26 25 24 24 23 23 23 22 21 19 18
26 27 27 28 28 29 29 29 29 28 26 23 20 17 11 6 5 5 6 4 4 4 5 7 8 8 7 7 7 6 6 5 4 4 4 5 6 7 7 7 7 8 10 10 10 10 10 10 9 8 7 7 7 9 13 17 20 22 24 25 26 27 27 27 27 27 27 27 27 27 27 27 26 26 26 26 25 24 24 23 23 22 20 16 12 10
25 26 27 28 27 27 27 26 24 22 21 19 18 16 11 6 4 5 5 4 4 4 6 7 7 7 7 7 7 7 6 5 4 4 4 5 6 7 6 7 7 7 8 8 9 9 7 7 6 6 6 7 8 8 9 13 16 18 20 22 24 24 25 26 26 26 26 26 26 26 26 26 26 26 26 26 26 25 24 24 22 19 15 11 9 8
18 19 20 20 20 20 18 15 14 13 14 15 15 14 11 6 4 4 4 3 4 4 6 7 7 7 7 7 7 7 5 5 4 3 4 5 6 6 6 7 7 7 6 7 7 7 6 5 4 5 6 8 8 7 8 9 11 12 13 16 18 20 22 24 25 25 25 26 26 26 26 26 26 26 26 26 26 25 25 24 21 17 10 8 8 8
11 12 11 10 10 9 8 6 6 7 9 11 12 12 9 6 4 4 4 4 4 4 5 6 7 7 7 6 6 5 5 4 4 4 4 5 5 6 6 7 7 7 5 5 6 7 8 6 5 5 6 7 7 7 7 8 9 9 9 11 12 14 18 21 22 23 23 24 25 25 26 26 26 26 26 26 26 26 25 25 21 16 10 8 8 8
9 8 7 6 6 5 5 5 4 4 5 6 7 8 7 6 5 5 4 4 4 5 5 6 7 7 7 6 6 6 5 5 6 6 6 5 5 5 6 7 7 7 6 5 6 6 7 7 6 6 6 7 7 7 7 8 8 9 9 10 10 12 16 18 19 19 19 21 22 23 24 25 25 25 25 25 25 25 25 25 22 17 11 9 8 9
8 7 6 5 5 4 4 4 4 4 4 5 5 6 6 6 6 6 5 5 5 5 6 6 7 7 7 7 7 7 6 6 7 8 8 6 5 5 5 6 7 8 7 6 6 6 7 7 7 7 7 6 6 6 7 8 8 8 9 9 9 10 13 14 14 14 15 16 18 19 21 22 22 23 23 24 24 24 24 25 24 21 15 11 9 9
7 6 6 5 5 4 4 4 5 5 5 5 6 6 6 6 6 6 6 6 6 6 6 6 7 7 7 7 7 7 7 7 8 9 9 6 5 5 6 7 8 8 8 7 7 7 7 8 8 8 7 7 6 6 6 7 8 8 7 8 9 9 10 11 11 11 12 13 13 13 15 16 17 19 20 21 22 22 23 24 25 23 21 15 11 9
6 6 6 5 5 5 5 5 5 6 6 6 6 6 6 6 6 6 6 6 6 6 6 6 6 7 7 6 7 7 8 8 8 9 9 7 6 6 7 7 8 8 8 8 8 7 7 9 10 10 8 8 6 5 5 6 7 7 7 8 8 9 9 9 10 10 11 11 11 10 10 11 12 13 15 17 20 21 23 24 24 24 23 20 16 12
6 6 6 5 5 5 5 6 6 6 6 6 6 6 6 6 6 6 6 6 6 7 7 7 6 6 6 7 7 8 9 8 9 9 10 8 7 6 6 7 8 8 9 9 9 8 8 9 10 11 10 9 7 6 5 5 6 7 7 8 8 9 9 9 9 9 10 10 10 10 10 10 10 11 12 17 20 22 23 23 23 23 22 21 19 17
6 6 5 5 5 5 5 5 5 5 6 5 5 6 6 6 6 6 6 6 6 6 7 7 7 7 8 8 8 9 9 9 9 9 10 8 7 7 7 7 8 9 9 9 9 9 9 10 11 11 10 9 7 6 6 6 6 7 8 8 8 8 9 9 9 9 9 10 10 10 10 10 10 11 12 16 18 19 20 20 20 20 21 21 21 20
6 5 5 4 5 5 5 5 5 5 5 5 5 6 6 6 7 7 6 6 6 6 6 6 6 8 10 11 11 10 10 11 11 11 10 9 8 7 8 8 9 9 9 9 9 10 10 10 11 11 10 9 8 8 8 8 7 8 8 8 8 8 8 8 8 8 9 10 10 11 10 10 10 10 10 12 12 13 13 13 14 15 17 18 19 20
6 5 5 5 5 5 5 5 5 5 5 5 5 6 6 6 6 7 6 6 6 6 6 6 6 7 9 10 12 13 13 13 12 11 10 9 7 7 8 9 10 10 10 9 9 9 10 10 10 10 10 10 9 9 8 8 8 8 9 9 8 8 8 8 8 9 9 9 10 10 10 9 9 9 9 9 10 10 10 10 10 11 13 12 13 15
5 5 5 6 5 5 5 5 5 5 4 5 6 6 5 5 4 4 5 5 5 5 6 6 6 7 8 9 10 11 12 10 10 10 8 7 6 6 7 8 9 10 10 9 9 9 10 10 11 11 11 10 10 10 9 8 8 8 9 8 7 7 8 8 8 8 8 8 8 9 9 8 8 8 8 9 9 10 10 10 10 10 11 10 9 10
5 5 5 5 5 5 5 5 5 4 4 4 4 4 4 4 3 3 4 4 4 5 5 5 6 7 7 7 8 8 9 9 9 9 7 7 8 8 7 8 9 9 10 10 9 9 10 10 11 12 11 11 11 11 11 10 10 11 11 9 8 8 9 10 9 9 8 8 8 8 9 9 9 9 9 9 9 9 10 10 11 11 10 9 8 8
7 6 5 4 4 4 4 4 5 5 5 4 4 4 4 4 3 3 3 3 4 4 4 4 5 6 7 7 7 7 7 8 8 9 9 9 9 9 8 8 8 8 8 9 10 10 10 11 11 11 11 11 11 11 10 10 10 10 9 9 9 10 10 10 8 7 8 8 8 9 10 10 9 8 8 8 8 9 9 10 12 12 11 9 8 8
7 6 4 4 4 4 4 4 5 5 4 4 4 5 4 4 4 4 4 4 4 5 5 5 5 6 7 7 6 6 6 7 8 8 8 8 8 8 8 9 8 8 7 8 9 10 10 11 11 11 11 11 11 11 12 11 10 9 9 9 9 9 7 7 6 7 8 9 9 8 8 8 8 7 8 8 8 8 8 10 12 12 12 10 9 9
6 5 4 4 3 3 4 4 4 4 4 4 5 5 5 5 5 5 5 5 5 5 5 5 5 5 7 7 7 6 6 6 6 7 8 8 9 8 8 8 8 8 6 6 7 8 8 10 11 11 10 10 11 11 12 11 10 9 8 9 9 8 7 7 8 9 9 9 9 9 8 8 8 7 7 7 7 6 7 8 8 9 10 9 9 9
4 4 4 4 4 4 4 5 5 4 4 5 6 5 5 5 6 6 6 5 5 5 5 5 4 5 6 6 6 7 6 6 5 6 6 8 10 11 10 8 7 7 7 7 7 7 8 9 10 10 10 10 11 12 12 12 11 11 10 9 9 9 8 8 9 9 9 9 9 9 9 8 8 8 8 7 7 6 6 7 7 8 8 8 8 9
4 4 4 4 4 5 6 6 5 5 5 6 6 6 5 5 5 5 6 6 5 5 5 5 4 5 6 7 7 6 6 6 6 6 5 6 6 6 7 7 7 7 7 7 7 7 7 8 9 9 10 11 11 12 12 11 11 10 10 9 8 8 8 8 8 8 9 9 9 9 10 9 9 8 8 8 7 7 6 6 7 7 7 8 8 8
4 5 5 4 5 5 6 6 6 5 6 6 6 6 6 5 5 4 5 5 5 5 5 5 5 6 7 7 7 7 7 7 7 6 6 6 5 5 5 6 6 7 7 7 7 7 8 8 8 8 9 10 11 11 11 10 10 10 10 9 8 7 7 7 7 7 8 9 9 9 10 9 9 9 9 8 8 7 6 6 6 6 7 8 8 8
6 6 5 5 5 6 6 6 6 6 6 7 6 6 6 5 5 5 5 5 5 5 5 5 6 6 8 7 7 7 8 9 8 7 7 6 5 5 5 5 5 6 6 7 8 8 8 8 8 8 8 8 9 11 12 11 10 10 10 9 8 7 7 7 7 7 8 8 9 10 9 8 8 8 9 9 8 7 6 6 5 5 6 7 8 8
6 6 6 6 6 6 6 6 7 7 7 7 6 6 5 6 7 7 5 4 4 4 5 5 6 7 8 7 7 7 8 9 8 7 6 6 5 5 5 5 5 5 5 6 6 6 7 7 8 8 8 8 9 10 11 11 10 10 9 8 8 7 7 6 6 6 7 8 9 9 8 8 8 8 8 9 9 9 8 7 6 5 5 6 7 7
6 7 7 6 6 7 7 7 7 7 8 7 6 6 5 4 5 5 5 4 4 4 5 6 7 8 8 7 7 7 8 7 7 6 6 5 5 5 5 5 5 5 6 5 5 5 5 5 6 7 9 9 10 10 10 10 10 9 9 8 7 6 6 6 5 5 6 7 7 7 7 7 7 7 7 8 9 9 9 8 7 6 5 5 6 7
7 7 7 7 7 7 7 7 7 8 8 7 6 6 5 4 4 4 4 4 5 5 5 6 7 8 8 8 8 8 8 8 8 7 6 5 4 4 5 5 5 6 6 6 6 5 4 5 5 6 7 10 11 10 7 7 8 9 9 8 7 6 6 5 4 4 5 5 6 6 6 6 7 6 6 7 8 8 8 8 7 6 5 5 6 7
Wind_Direction
264 267 267 261 262 266 267 262 264 269 274 276 276 276 277 277 276 276 277 278 278 278 277 277 278 278 280 281 283 284 285 285 286 287 287 287 288 287 287 287 287 287 287 287 287 288 289 291 292 293 294 295 295 294 293 293 292 291 290 289 288 287 287 286 285 284 283 282 282 281 282 282 282 282 283 283 284 284 285 286 287 288 289 291 292 293
262 266 267 260 261 266 271 267 266 267 272 275 276 277 278 278 278 278 278 277 276 275 275 276 277 277 277 278 280 282 282 284 285 285 286 286 286 286 287 287 287 288 288 289 289 290 292 293 294 295 295 295 295 294 293 292 291 290 289 288 288 288 288 287 285 284 282 282 281 282 282 282 283 283 283 283 284 285 285 286 287 288 289 290 290 291
267 269 268 264 263 266 271 271 268 265 266 271 273 275 277 279 280 280 279 278 276 274 273 274 275 276 276 276 278 280 281 282 283 284 285 286 286 287 288 288 289 290 291 292 292 293 294 294 295 295 295 295 294 294 293 292 291 290 289 288 288 289 289 288 286 284 283 281 281 281 281 281 281 282 282 283 284 285 285 286 286 286 287 287 288 289
266 268 268 267 264 263 264 268 268 267 265 270 273 276 278 278 278 277 277 276 276 275 273 272 272 273 274 274 276 278 280 281 283 284 285 286 287 289 290 291 292 293 294 294 294 294 294 294 294 294 294 294 293 293 292 291 291 290 289 289 289 290 290 288 286 284 283 281 281 280 280 280 280 281 282 283 284 284 285 285 285 285 286 287 287 288
261 263 266 268 268 266 263 265 267 269 272 274 275 276 276 275 274 274 274 274 273 273 273 271 271 271 272 274 276 278 280 282 284 285 286 288 290 292 293 294 294 295 295 294 294 294 293 293 293 293 293 293 293 293 292 292 291 290 290 290 290 289 289 287 285 283 281 281 280 280 280 280 280 281 282 283 283 284 284 284 285 285 286 287 288 288
260 260 264 266 268 270 271 269 270 273 276 275 274 272 271 270 270 271 272 272 272 272 272 272 271 272 273 275 277 279 281 284 286 288 290 292 293 294 295 294 294 294 294 293 293 293 292 292 292 292 293 293 293 293 293 292 291 291 290 290 290 289 287 286 284 283 282 282 281 281 281 281 281 281 282 282 282 283 283 284 284 285 286 287 288 288
262 261 263 266 268 270 272 270 269 269 272 274 274 273 270 269 267 267 267 268 270 273 275 275 275 274 273 274 276 279 283 287 290 292 293 294 294 294 294 293 293 293 293 293 292 292 292 292 292 293 293 294 294 294 294 293 293 292 292 292 291 291 289 288 287 286 284 283 283 282 282 281 281 281 281 282 282 282 282 283 284 285 286 287 288 288
263 263 262 265 267 269 268 266 263 262 264 269 272 274 273 271 269 267 266 267 269 273 277 277 276 274 272 273 277 282 287 290 292 294 294 293 293 292 292 292 292 292 292 292 293 293 293 293 294 295 295 296 296 296 296 295 295 294 294 293 293 292 290 289 288 286 285 284 284 283 282 282 281 281 281 281 282 282 283 284 285 286 287 287 288 289
259 262 262 261 263 266 268 265 260 256 256 260 265 269 273 275 275 274 273 272 271 271 272 275 276 277 278 281 286 290 292 292 292 292 292 292 292 291 292 292 292 292 293 293 293 294 295 295 296 297 298 298 298 298 298 298 297 296 296 295 293 291 289 288 286 285 285 284 284 283 283 282 282 282 282 282 283 283 284 285 286 286 287 288 288 289
253 258 261 259 257 258 263 265 262 254 247 251 256 261 267 274 279 281 282 279 274 269 267 274 281 287 291 292 293 294 294 293 292 292 292 292 292 293 293 293 293 293 293 294 295 296 297 298 298 299 299 299 299 299 299 299 298 298 296 295 293 290 288 287 285 285 284 284 284 283 283 283 283 283 284 284 284 285 285 286 286 287 287 287 288 289
251 254 257 258 255 253 254 259 260 255 246 248 252 255 257 263 271 277 281 279 276 274 274 281 288 294 297 298 297 296 295 294 293 292 292 292 293 294 294 294 294 294 295 296 297 298 299 299 300 300 300 300 300 299 299 299 298 297 295 293 291 289 287 286 285 284 284 284 284 283 283 284 284 284 285 285 286 286 286 286 286 286 286 286 287 288
250 251 253 253 253 252 251 254 256 255 249 250 254 257 257 256 260 267 273 277 281 286 291 292 293 293 294 297 298 298 296 293 292 292 292 293 293 294 295 295 295 296 297 297 298 299 299 300 300 300 299 299 299 298 298 297 296 295 293 291 289 288 286 285 285 284 284 284 284 284 284 284 285 285 286 286 286 286 286 286 285 285 285 286 286 287
247 248 249 250 251 251 252 253 253 251 246 246 252 259 265 263 262 264 269 278 284 291 297 297 296 293 291 292 294 295 294 292 291 292 293 294 295 297 298 297 297 298 298 299 299 299 299 299 299 299 298 298 297 296 296 294 293 291 290 289 287 286 285 285 285 285 285 285 285 285 285 286 286 286 287 286 286 285 285 285 285 285 285 285 286 287
246 246 247 248 248 248 248 248 248 248 246 247 252 259 265 269 271 272 275 281 286 291 297 296 295 293 292 290 288 288 290 291 292 293 293 294 297 300 301 299 298 298 299 298 298 297 299 299 298 297 297 296 295 294 292 291 290 289 288 288 287 286 287 287 287 287 287 287 287 287 287 287 287 287 286 286 286 285 285 285 285 285 285 285 286 287
243 244 245 246 246 245 243 243 246 250 253 257 261 266 271 272 274 276 280 285 290 295 299 295 292 290 288 287 287 288 289 293 295 296 296 295 297 300 302 299 297 297 297 297 296 296 298 298 296 294 293 292 291 290 289 289 289 289 290 290 290 290 290 290 290 290 289 289 289 288 288 288 287 287 287 286 286 285 285 285 285 285 285 285 286 287
240 241 243 245 245 244 240 240 245 252 259 262 265 267 272 274 276 279 283 288 293 298 300 296 294 291 287 285 285 289 294 297 297 297 298 297 297 300 302 299 297 296 296 296 296 296 297 295 293 291 291 291 291 291 292 292 292 293 293 293 293 293 293 293 292 292 291 291 290 290 289 289 288 288 287 287 286 286 286 285 285 285 285 286 286 287
239 239 240 243 244 244 243 244 248 255 262 265 265 264 265 269 274 278 281 288 292 295 294 293 293 293 293 292 290 292 302 303 301 299 298 296 297 300 302 298 295 295 295 295 294 295 295 294 293 293 292 292 293 294 294 295 295 296 296 296 296 295 295 294 294 293 293 292 291 291 290 290 289 288 288 287 286 286 286 285 285 285 285 285 285 286
236 235 235 238 241 245 246 249 254 258 264 266 266 266 264 265 270 274 280 285 288 288 287 284 283 285 291 294 297 304 318 311 305 301 298 296 297 299 301 296 292 292 293 293 294 295 295 295 295 295 294 295 295 296 296 297 297 297 297 297 297 297 296 296 295 295 294 293 292 291 291 290 290 289 288 287 287 287 287 286 286 285 285 284 285 285
232 229 228 234 239 246 250 253 257 261 263 262 262 266 270 270 272 274 277 279 279 278 278 278 277 277 282 286 294 306 322 313 306 301 297 295 296 298 301 297 293 292 292 293 295 297 297 296 295 295 295 296 296 296 297 297 297 297 297 298 298 298 298 297 297 296 295 294 293 292 292 291 290 290 289 289 289 288 288 287 286 285 284 284 284 284
229 226 226 233 242 250 255 256 257 257 255 253 254 260 267 272 274 276 275 274 272 270 271 272 274 276 281 287 296 307 319 314 306 298 294 293 294 297 302 299 295 293 292 294 297 299 298 296 294 294 295 295 296 296 296 297 297 298 298 299 299 299 299 298 297 296 295 294 294 293 293 293 292 291 291 290 290 289 288 287 286 284 283 282 282 281
231 232 230 233 241 252 258 257 253 250 248 249 253 258 265 272 274 274 271 270 269 269 267 266 270 277 288 295 301 307 316 312 304 297 293 292 293 296 302 300 297 295 294 296 297 298 297 295 294 294 294 295 295 296 296 297 298 298 299 299 300 299 299 298 298 297 297 296 297 296 296 295 295 294 293 291 290 289 288 287 286 285 284 283 282 281
241 245 247 249 253 257 262 261 255 249 246 246 249 255 263 267 269 270 269 270 270 270 268 269 277 285 293 295 298 301 308 303 297 295 296 294 294 295 301 301 298 296 294 296 298 299 297 296 295 294 294 295 296 296 297 297 298 299 299 300 300 300 300 300 300 301 301 301 301 300 300 298 297 295 294 292 291 290 290 289 289 288 288 287 287 287
257 262 266 264 262 261 262 260 256 250 244 242 245 249 254 257 261 265 269 270 269 268 269 276 283 288 290 291 292 294 296 294 293 294 294 292 292 295 303 303 299 295 293 297 300 301 300 298 296 295 295 295 296 296 297 297 298 298 299 300 301 302 303 304 304 305 306 305 305 304 302 301 299 297 296 294 293 292 291 291 291 292 292 292 293 294
261 264 267 267 264 261 259 256 252 247 241 239 241 244 247 250 254 257 262 261 261 265 274 285 289 291 289 290 291 292 293 293 293 292 288 287 289 293 301 303 299 295 293 297 301 302 301 299 297 296 295 295 296 296 296 297 297 298 299 301 302 304 306 307 308 308 308 307 306 305 304 302 301 299 298 296 295 294 293 293 293 293 293 294 294 295
256 259 262 260 257 253 250 247 244 240 235 233 235 240 245 248 251 252 251 253 260 273 288 293 294 292 292 294 293 292 292 288 286 284 283 284 287 290 296 300 298 296 295 298 301 302 301 299 298 296 295 294 295 295 296 296 297 299 300 302 305 307 308 308 308 308 307 307 306 305 305 304 303 302 301 299 298 296 295 295 294 293 293 293 293 294
250 251 252 253 252 251 249 247 244 241 237 233 230 232 239 243 246 248 252 260 274 290 297 294 292 290 292 293 292 290 290 286 281 278 280 284 287 290 295 298 297 295 296 299 302 303 301 299 298 296 294 292 292 294 295 296 298 300 302 305 306 307 308 308 307 307 307 307 307 306 307 306 306 305 304 303 301 299 298 297 295 294 293 293 293 293
251 251 251 250 250 249 248 247 246 244 241 239 237 236 240 245 255 265 271 278 289 296 294 289 288 288 290 289 288 288 291 290 285 279 278 282 285 289 294 298 298 297 298 299 300 301 300 299 298 297 294 290 289 291 295 297 300 302 305 306 306 306 307 307 307 307 307 308 308 309 309 309 309 309 308 307 305 303 301 299 298 296 295 294 293 292
253 252 251 250 249 248 248 248 248 247 246 247 249 253 259 264 274 279 280 284 287 286 280 280 282 286 288 288 288 289 291 289 285 280 278 281 283 286 293 298 300 299 299 298 298 297 297 296 295 295 293 291 291 293 297 301 302 304 304 305 305 305 305 306 307 307 308 309 310 311 312 313 313 313 312 311 309 307 305 303 301 298 296 294 292 288
254 255 255 254 254 254 254 254 254 254 255 258 263 268 272 272 269 267 270 272 273 272 270 273 276 281 285 287 288 288 287 284 280 279 284 284 284 286 294 298 300 301 302 300 298 296 293 292 292 294 294 298 299 300 301 302 302 301 301 302 303 304 304 305 306 308 309 311 313 314 315 316 316 316 315 314 313 311 309 306 304 302 298 294 289 283
252 254 257 258 260 261 262 263 263 264 265 269 272 274 274 267 252 248 254 255 256 260 265 270 273 277 281 286 288 288 285 281 280 286 296 292 289 290 297 299 300 302 306 306 304 301 296 293 293 296 299 303 304 303 300 298 297 296 296 299 301 302 303 305 307 309 311 313 314 316 317 317 317 317 316 315 314 313 311 309 307 305 299 291 284 280
243 245 249 252 256 259 261 261 263 267 269 270 269 268 266 258 244 236 238 237 240 247 256 263 268 272 276 282 286 288 287 288 294 301 306 294 290 292 300 300 299 300 304 306 305 304 304 303 302 303 304 304 302 299 295 293 293 293 295 297 299 300 303 305 307 310 312 314 315 316 316 316 316 316 315 315 314 313 312 311 310 307 299 290 283 279
234 234 234 234 235 238 242 245 248 253 256 258 257 255 252 247 240 232 228 227 229 236 246 255 262 266 268 270 274 278 285 290 298 303 304 295 290 292 297 297 298 298 300 296 293 294 299 303 307 309 307 302 299 296 294 293 292 293 295 297 298 300 303 306 308 310 312 313 314 315 315 315 314 314 314 313 313 312 312 311 311 310 305 296 287 282
229 225 221 221 221 223 227 231 233 234 236 238 238 240 242 241 238 234 228 225 225 230 237 248 255 261 264 265 267 271 277 282 291 297 301 296 293 293 296 297 298 298 299 293 286 283 284 292 299 304 304 301 298 296 295 293 292 292 293 296 297 300 303 306 308 309 310 311 312 312 313 313 313 313 312 312 312 311 311 311 311 311 309 303 294 288
225 219 215 213 214 218 222 224 226 227 228 229 229 229 230 232 234 233 231 228 226 227 231 238 247 254 261 265 268 271 275 278 285 292 299 296 293 292 296 297 298 299 300 296 292 288 282 287 293 299 301 300 298 296 295 293 292 292 292 294 296 299 302 305 306 307 307 308 309 309 310 311 311 312 312 311 311 310 310 309 310 309 308 305 300 294
221 217 213 210 211 215 221 223 224 226 226 227 227 227 227 228 229 230 230 229 228 228 228 232 237 244 252 260 267 272 275 277 284 290 294 292 291 292 295 295 297 299 299 297 296 295 290 291 293 297 299 300 299 297 294 293 293 293 292 293 294 296 299 301 303 304 304 305 306 306 307 308 310 311 312 310 309 308 307 307 308 308 308 306 303 298
219 217 213 210 210 214 220 222 224 225 226 227 227 227 227 227 227 227 227 228 229 230 231 232 234 237 241 249 258 265 271 276 282 286 289 289 289 291 291 292 294 296 296 295 295 295 294 294 295 296 298 299 300 300 298 296 295 294 294 294 294 294 295 297 298 299 301 302 303 304 306 308 309 310 309 308 307 306 306 306 306 307 309 308 305 301
217 216 213 210 211 214 220 222 223 224 226 228 229 229 228 228 228 228 227 226 227 230 235 238 240 241 242 246 252 258 266 273 279 283 284 284 285 285 286 288 291 292 292 293 294 296 295 296 297 297 297 296 298 301 304 303 301 297 294 294 294 294 294 294 295 295 297 299 301 302 305 306 307 308 306 305 305 304 304 305 307 309 311 311 308 305
215 217 215 212 212 215 220 223 224 225 226 228 230 230 229 227 226 226 227 225 225 227 233 238 244 248 249 253 255 259 264 269 273 276 277 276 277 278 281 285 287 287 286 287 290 292 294 295 297 298 298 296 295 297 301 303 302 299 296 294 293 292 291 292 293 294 296 298 299 301 302 304 305 305 305 305 305 304 304 305 309 311 313 312 310 307
216 218 217 216 215 216 218 223 225 226 225 227 228 228 227 226 225 224 224 224 224 226 230 237 244 250 252 255 257 260 264 266 268 270 271 270 269 271 276 281 284 285 284 283 284 285 287 288 291 294 297 298 299 299 299 300 299 298 297 296 293 291 290 293 294 295 296 297 298 299 301 302 303 305 305 307 308 309 308 309 311 313 313 312 310 308
221 221 221 220 218 216 217 222 224 225 225 229 230 229 227 226 226 226 225 227 230 233 234 238 245 251 253 254 257 259 262 264 266 267 268 266 265 266 271 275 280 282 284 282 281 281 282 283 285 287 290 293 296 298 300 299 299 300 301 300 298 296 297 297 296 294 293 293 295 297 300 301 303 305 307 310 311 312 313 313 313 312 312 310 308 307
224 224 225 225 223 223 225 225 225 225 225 229 230 231 229 229 232 237 239 240 242 243 245 247 252 256 257 255 255 256 257 260 262 263 264 264 264 265 268 271 275 279 282 282 281 280 280 282 284 286 289 290 292 293 294 296 299 301 302 300 297 297 298 297 295 294 294 293 294 296 299 301 303 305 306 307 307 308 309 310 309 308 307 306 305 306
230 229 227 227 227 227 227 228 229 230 229 230 231 233 232 229 230 234 240 245 248 248 248 251 257 261 264 262 259 256 253 255 257 259 261 262 262 263 265 268 271 275 278 280 280 280 280 282 284 287 289 291 292 293 293 295 298 300 300 298 297 297 296 294 294 296 298 298 298 299 300 301 301 302 302 302 301 301 303 303 303 304 304 306 307 307
231 231 230 228 227 227 228 231 233 234 234 235 236 235 232 228 228 233 240 244 247 249 250 252 257 263 268 269 268 265 260 255 255 256 258 259 260 261 262 264 266 269 273 278 281 282 283 283 283 284 287 289 290 291 293 296 298 299 298 297 299 300 298 298 299 300 298 298 298 298 298 297 297 296 296 296 296 297 298 299 300 301 304 307 308 308
233 235 234 230 229 229 231 232 233 234 235 237 240 240 236 231 232 236 241 244 246 248 251 254 258 263 267 269 271 272 271 265 259 256 257 260 261 262 264 264 264 265 266 272 278 283 287 286 284 284 286 289 290 291 292 295 297 298 297 296 295 293 290 295 300 302 300 298 297 297 296 296 296 296 295 293 293 294 296 298 299 301 303 305 305 305
235 237 237 235 233 233 234 235 235 236 238 240 242 242 237 233 233 235 238 242 246 248 250 255 260 264 266 267 271 274 276 275 272 267 264 265 269 271 271 269 269 269 267 267 270 276 283 286 288 289 291 290 289 289 290 293 294 295 295 294 292 289 285 289 293 296 297 297 297 297 297 297 298 297 297 296 295 296 297 299 299 300 302 302 302 301
238 240 241 239 238 237 238 238 238 239 240 242 242 241 237 231 229 232 236 240 245 249 252 252 256 260 264 268 271 275 278 278 278 277 275 272 270 269 268 267 267 268 268 266 266 267 271 278 285 291 295 293 290 287 285 289 291 292 292 292 291 289 285 286 287 289 290 292 294 295 296 298 298 298 297 298 298 299 298 298 299 300 302 301 300 298
237 239 240 241 241 241 242 241 241 241 242 243 242 240 236 229 227 229 234 238 243 248 252 252 252 254 258 264 269 273 276 278 280 280 281 281 279 276 272 269 267 266 265 266 267 268 269 273 278 285 291 292 291 288 286 286 286 287 288 289 288 286 283 282 283 284 286 288 290 292 296 298 298 297 297 298 299 299 299 299 300 300 300 300 299 297
238 240 240 241 241 242 243 242 241 240 241 242 241 239 234 227 225 227 235 237 241 246 250 250 251 253 257 260 263 267 271 275 278 280 282 284 285 284 281 278 274 271 269 270 272 273 273 273 273 274 278 281 284 286 287 286 285 284 284 285 284 282 279 278 278 280 281 282 283 285 289 292 295 296 299 300 300 300 300 300 299 296 295 295 294 293
238 239 240 240 240 241 241 240 239 238 240 240 240 239 235 231 230 232 238 239 241 245 247 249 251 255 258 260 262 265 268 271 274 277 279 281 284 286 286 286 286 285 283 279 276 275 275 272 268 264 264 267 273 279 283 284 284 283 283 283 282 280 277 275 274 274 275 276 276 278 280 283 286 291 296 298 299 300 302 302 300 297 293 290 288 286
238 238 238 238 238 239 240 238 237 237 238 238 238 237 236 234 233 235 239 242 244 246 247 249 251 254 258 260 262 263 265 268 270 272 274 276 280 285 289 291 294 295 294 290 287 284 283 279 272 266 262 265 270 275 281 285 287 289 289 288 287 284 281 277 274 272 273 275 277 277 279 280 282 285 288 292 295 297 300 302 302 301 298 293 288 286
237 236 235 235 236 237 238 237 237 236 237 236 236 236 236 237 239 241 242 245 246 248 249 248 250 252 255 258 259 261 262 264 267 269 270 273 278 283 288 292 295 298 298 297 296 295 295 295 292 286 279 278 279 281 283 290 296 299 300 299 298 297 294 290 287 284 283 284 284 284 282 282 282 283 284 288 291 295 299 301 302 303 305 302 297 294